BEAVERCUBE (53768 NORAD) Tracking and Keplerian Element Data

This shows tracking and keplerian element data for the satellite.

Feedback or suggestion? Click here.




ElementValue
Catalog53768
NameBEAVERCUBE
Epoch Orbit1164
Epoch Day324.15824088
Epoch Year2022
RAAN281.8235
Inclination51.6389
Eccentricity0.0004755
Argument of Perigee111.6242
Mean Anonmoly248.5257
Mean Motion15.57288224
Decay Rate0.00039653
L11 53768U 98067UF 22324.15824088 .00039653 00000+0 53686-3 0 9994
L22 53768 51.6389 281.8235 0004755 111.6242 248.5257 15.57288224 11649



Live tracking and technical data element details for BEAVERCUBE (NORAD 53768). BEAVERCUBE can be tracked NOW for your location showing map with azimuth and elevation plus other details from your city location.







IsCatalogInMostPopularTable: catalog: 53768, numindb: -1

Insert: records affected: 1


GetName: 53768 BEAVERCUBE

Hit Count: inserted at: Thu, 08 Dec 2022 08:31:40 GMT